Regional Weather Roundup
Issued by NWS

Home | Current Version | Previous Version | Graphics & Text | Print | Product List | Glossary On
Versions: 1 2 3 4 5 6 7 8 9 10 11 12 13 14 15 16 17 18 19 20 21 22 23 24 25 26 27 28 29 30 31 32 33 34 35 36 37 38 39 40 41 42 43 44 45 46 47 48 49 50
780
ASUS45 KBOI 082210
RWRID

IDAHO REGIONAL WEATHER ROUNDUP
NATIONAL WEATHER SERVICE BOISE ID
300 PM MST THU DEC 08 2016

NOTE: "FAIR" INDICATES FEW OR NO CLOUDS BELOW 12000 FEET
WITH NO SIGNIFICANT WEATHER AND/OR OBSTRUCTIONS TO VISIBILITY

IDZ012-014-082300-
SOUTHWEST IDAHO


CITY           SKY/WX    TMP DP  RH WIND       PRES   REMARKS
BOISE          LGT SNOW  25  22  88 SE14      30.11F FOG     WCI  13
CALDWELL       LGT SNOW  24  20  84 SE17      30.14F FOG     WCI  11
MOUNTAIN HOME  LGT SNOW  24  22  92 SE22      30.12F VSB 3/4 WCI   9
$$

IDZ016-017-082300-
SOUTHCENTRAL IDAHO


CITY           SKY/WX    TMP DP  RH WIND       PRES   REMARKS
BURLEY         SNOW      18  15  88 NE14      30.11  VSB 1/2 WCI   4
JEROME         LGT SNOW  20  16  84 NE22G31   30.11F VSB 3/4 WCI   3
TWIN FALLS     SNOW      19  15  84 NE14      30.10F VSB 1/2 WCI   6
$$

IDZ019>023-082300-
SOUTHEAST IDAHO


CITY           SKY/WX    TMP DP  RH WIND       PRES   REMARKS
IDAHO FALLS    CLOUDY    20   8  60 NW13      30.17F WCI   7
POCATELLO      LGT SNOW  19  13  77 NE6       30.16F WCI  11
REXBURG        CLOUDY    15   4  61 E5        30.17F WCI   8
$$

IDZ006-010-011-018-031-032-082300-
CENTRAL IDAHO MOUNTAINS


CITY           SKY/WX    TMP DP  RH WIND       PRES   REMARKS
MCCALL         LGT SNOW  11   7  84 SE3       29.97F FOG
HAILEY         LGT SNOW  18  14  86 NW5       30.09F VSB 3/4 WCI  11
STANLEY          N/A      0  -5  79 CALM      30.01F
SALMON         CLOUDY    12   1  62 CALM      30.18F
CHALLIS        CLOUDY    11   2  67 CALM      30.12F
$$

IDZ002-004-006-007-026-082300-
NORTHERN IDAHO


CITY           SKY/WX    TMP DP  RH WIND       PRES   REMARKS
LEWISTON       MOSUNNY   23  14  68 SW3       30.16F
LOWELL           N/A     25  12  58 N3        30.23F
COEUR D`ALENE  SUNNY     22   7  52 N22       30.18F WCI   6
MULLAN PASS    CLOUDY     2  -2  83 SE5       29.94F FOG     WCI  -8
$$




USA.gov is the U.S. government's official web portal to all federal, state and local government web resources and services.